W8APS Weather Reports


time (UTC)temp
C
wind
direction
speed
KPH
gust
KPH
rain 1hr
cm
rain 24hr
cm
rain mn
cm
humidity
%
barometer
mb
20260506144530 7 68 1.6 9.7 0.00 0.00 0.00 62 1012.2
20260506144015 7 8 3.2 9.7 0.00 0.00 0.00 61 1012.4
20260506143512 7 300 3.2 9.7 0.00 0.00 0.00 61 1012.3
20260506143032 6 115 3.2 9.7 0.00 0.00 0.00 61 1012.1
20260506142515 6 71 3.2 12.9 0.00 0.00 0.00 62 1012.1
20260506142012 6 356 4.8 12.9 0.00 0.00 0.00 63 1012.2
20260506141529 6 27 4.8 14.5 0.00 0.00 0.00 63 1012.1
20260506141014 6 15 8.0 14.5 0.00 0.00 0.00 62 1012.2
20260506140518 6 56 4.8 12.9 0.00 0.00 0.00 63 1012.0
20260506140030 6 316 3.2 14.5 0.00 0.00 0.00 64 1011.9
20260506135512 6 321 4.8 14.5 0.00 0.00 0.00 66 1011.9
20260506135014 6 4 6.4 14.5 0.00 0.00 0.00 63 1012.0
20260506134532 6 34 6.4 16.1 0.00 0.00 0.00 64 1011.9
20260506134012 6 313 6.4 16.1 0.00 0.00 0.00 63 1011.9
20260506133513 6 347 8.0 16.1 0.00 0.00 0.00 64 1011.9
20260506133042 5 13 6.4 14.5 0.00 0.00 0.00 64 1011.8
20260506132515 5 14 6.4 14.5 0.00 0.00 0.00 64 1011.6
20260506132015 5 349 6.4 14.5 0.00 0.00 0.00 65 1011.6
20260506131535 5 23 4.8 14.5 0.00 0.00 0.00 65 1011.7
20260506131015 5 43 6.4 14.5 0.00 0.00 0.00 65 1011.7
20260506130515 5 343 4.8 17.7 0.00 0.00 0.00 67 1011.6
20260506130030 5 41 6.4 17.7 0.00 0.00 0.00 67 1011.4
20260506125514 5 18 9.7 17.7 0.00 0.00 0.00 66 1011.3
20260506125014 5 348 6.4 14.5 0.00 0.00 0.00 69 1011.3
20260506124532 5 328 8.0 14.5 0.00 0.00 0.00 69 1011.2
20260506124012 5 13 6.4 16.1 0.00 0.00 0.00 70 1011.2
20260506123513 5 35 8.0 19.3 0.00 0.00 0.00 70 1011.2
20260506123032 5 14 9.7 19.3 0.00 0.00 0.00 70 1011.2
20260506122513 5 342 4.8 19.3 0.00 0.00 0.00 72 1011.3
20260506122014 5 345 4.8 16.1 0.00 0.00 0.00 73 1011.1
20260506121531 5 29 9.7 16.1 0.00 0.00 0.00 72 1011.0
20260506121017 5 348 6.4 16.1 0.00 0.00 0.00 72 1010.8
20260506120514 5 328 6.4 12.9 0.00 0.00 0.00 73 1010.9
20260506120037 5 4 3.2 14.5 0.00 0.00 0.00 74 1010.9
20260506115519 5 30 6.4 16.1 0.00 0.00 0.00 74 1010.6
20260506115013 5 5 6.4 16.1 0.00 0.00 0.00 74 1010.6
20260506114531 5 346 8.0 12.9 0.00 0.00 0.00 73 1010.3
20260506114018 5 343 3.2 9.7 0.00 0.00 0.00 73 1010.3
20260506113512 5 22 3.2 9.7 0.00 0.00 0.00 73 1010.3
20260506113030 5 344 3.2 6.4 0.00 0.00 0.00 72 1010.3
20260506112512 5 0 0.0 4.8 0.00 0.00 0.00 73 1010.2
20260506112013 5 355 0.0 3.2 0.00 0.00 0.00 73 1010.1
20260506111529 5 335 0.0 1.6 0.00 0.00 0.00 72 1010.0
20260506111014 5 329 0.0 4.8 0.00 0.00 0.00 72 1009.8
20260506110518 5 339 0.0 4.8 0.00 0.00 0.00 72 1009.7
20260506110033 5 3 0.0 1.6 0.00 0.00 0.00 71 1009.7
20260506105515 5 315 0.0 1.6 0.00 0.00 0.00 71 1009.7
20260506105014 5 0 0.0 1.6 0.00 0.00 0.00 70 1009.5
20260506104537 5 4 0.0 1.6 0.00 0.00 0.00 70 1009.4
20260506104015 5 340 0.0 3.2 0.00 0.00 0.00 69 1009.4
20260506103515 5 0 0.0 3.2 0.00 0.00 0.00 69 1009.5
20260506103035 5 0 0.0 1.6 0.00 0.00 0.00 69 1009.4
20260506102513 5 339 0.0 8.0 0.00 0.00 0.00 69 1009.4
20260506102016 5 0 1.6 8.0 0.00 0.00 0.00 68 1009.4
20260506101544 5 13 3.2 9.7 0.00 0.00 0.00 67 1009.4
20260506101019 5 341 4.8 12.9 0.00 0.00 0.00 67 1009.3
20260506100515 5 4 0.0 12.9 0.00 0.00 0.00 68 1009.0
20260506100033 5 326 4.8 12.9 0.00 0.00 0.00 68 1008.9
20260506095514 6 34 3.2 9.7 0.00 0.00 0.00 69 1008.8
20260506095014 6 1 1.6 9.7 0.00 0.00 0.00 72 1008.7
20260506094529 6 323 1.6 9.7 0.00 0.00 0.00 73 1008.7
20260506094014 6 20 3.2 9.7 0.00 0.00 0.00 74 1008.8
20260506093515 6 333 3.2 8.0 0.00 0.00 0.00 76 1008.8
20260506093032 6 8 1.6 8.0 0.00 0.00 0.00 77 1008.7
20260506092514 6 23 3.2 8.0 0.00 0.00 0.00 77 1008.7
20260506092012 6 7 1.6 8.0 0.00 0.00 0.00 77 1008.8
20260506091532 6 21 1.6 4.8 0.00 0.00 0.00 77 1008.7
20260506091014 6 340 1.6 6.4 0.00 0.00 0.00 77 1008.7
20260506090514 6 333 3.2 9.7 0.00 0.00 0.00 77 1008.6
20260506090029 6 29 4.8 9.7 0.00 0.00 0.00 76 1008.4
20260506085515 6 333 3.2 8.0 0.00 0.00 0.00 76 1008.4
20260506085014 6 315 1.6 8.0 0.00 0.00 0.00 75 1008.4
20260506084538 7 39 1.6 9.7 0.00 0.00 0.00 75 1008.6
20260506084015 7 24 1.6 9.7 0.00 0.00 0.00 74 1008.5
20260506083517 7 356 4.8 8.0 0.00 0.00 0.00 74 1008.6
20260506083033 7 14 1.6 6.4 0.00 0.00 0.00 73 1008.6
20260506082512 7 320 1.6 6.4 0.00 0.00 0.00 73 1008.6
20260506082016 7 331 1.6 4.8 0.00 0.00 0.00 72 1008.6
20260506081530 7 338 1.6 4.8 0.00 0.00 0.00 71 1008.7
20260506081017 7 30 1.6 6.4 0.00 0.00 0.00 71 1008.6
20260506080513 7 338 1.6 8.0 0.00 0.00 0.00 70 1008.6
20260506073512 7 308 1.6 8.0 0.00 0.00 0.00 66 1008.5
20260506073029 7 319 3.2 8.0 0.00 0.00 0.00 66 1008.4
20260506072514 7 328 1.6 8.0 0.00 0.00 0.00 65 1008.3
20260506072019 7 330 1.6 8.0 0.00 0.00 0.00 64 1008.5
20260506071528 7 0 0.0 6.4 0.00 0.00 0.00 64 1008.5
20260506071014 8 323 0.0 6.4 0.00 0.00 0.00 63 1008.6
20260506070514 8 297 0.0 6.4 0.00 0.00 0.00 63 1008.4
20260506062514 8 0 0.0 8.0 0.00 0.00 0.00 59 1008.5
20260506062011 8 314 1.6 8.0 0.00 0.00 0.00 58 1008.6
20260506061531 8 0 1.6 8.0 0.00 0.00 0.00 58 1008.6
20260506061016 8 0 1.6 9.7 0.00 0.00 0.00 58 1008.6
20260506060514 8 266 3.2 9.7 0.00 0.00 0.00 56 1008.5
20260506051012 8 244 1.6 12.9 0.00 0.00 0.00 53 1008.5
20260506050518 8 293 1.6 12.9 0.00 0.00 0.00 53 1008.5
20260506045017 8 315 1.6 8.0 0.00 0.00 0.00 53 1008.6
20260506044530 8 283 3.2 8.0 0.00 0.00 0.00 53 1008.1
20260506044014 8 302 1.6 8.0 0.00 0.00 0.00 53 1008.1
20260506043514 9 296 0.0 8.0 0.00 0.00 0.00 53 1008.2
20260506043030 9 328 1.6 8.0 0.00 0.00 0.00 53 1008.0
20260506042515 9 286 1.6 9.7 0.00 0.00 0.00 53 1008.1
20260506042014 9 304 1.6 9.7 0.00 0.00 0.00 52 1008.1
20260506041533 9 296 3.2 8.0 0.00 0.00 0.00 52 1008.1
20260506041014 9 264 1.6 8.0 0.00 0.00 0.00 53 1008.1
20260506040514 9 0 1.6 8.0 0.00 0.00 0.00 52 1008.2
20260506040037 9 296 0.0 9.7 0.00 0.00 0.00 52 1008.1
20260506035514 9 262 3.2 9.7 0.00 0.00 0.00 52 1008.3
20260506035014 9 0 1.6 9.7 0.00 0.00 0.00 52 1008.3
20260506034530 9 257 1.6 9.7 0.00 0.00 0.00 52 1008.3
20260506034014 9 290 1.6 9.7 0.00 0.00 0.00 52 1008.2
20260506033512 9 297 1.6 6.4 0.00 0.00 0.00 51 1008.2
20260506033034 9 226 1.6 8.0 0.00 0.00 0.00 51 1008.3
20260506032516 9 265 3.2 11.3 0.00 0.00 0.00 51 1008.2
20260506032013 9 267 1.6 11.3 0.00 0.00 0.00 51 1008.4
20260506031530 9 238 0.0 6.4 0.00 0.00 0.00 51 1008.2
20260506031016 9 255 1.6 6.4 0.00 0.00 0.00 50 1008.3
20260506030513 9 255 0.0 6.4 0.00 0.00 0.00 50 1008.1
20260506030029 10 251 3.2 6.4 0.00 0.00 0.00 50 1008.1
20260506025515 10 0 0.0 4.8 0.00 0.00 0.00 49 1008.2
20260506025013 10 231 0.0 9.7 0.00 0.00 0.00 49 1008.3
20260506024531 10 0 3.2 9.7 0.00 0.00 0.00 49 1008.5
20260506024017 10 244 1.6 6.4 0.00 0.00 0.00 49 1008.5
20260506023515 10 0 0.0 6.4 0.00 0.00 0.00 49 1008.2
20260506023042 10 236 1.6 6.4 0.00 0.00 0.00 48 1008.1
20260506022514 10 0 0.0 6.4 0.00 0.00 0.00 49 1008.2
20260506022016 10 266 1.6 8.0 0.00 0.00 0.00 48 1008.3
20260506021534 10 0 1.6 8.0 0.00 0.00 0.00 48 1008.5
20260506021017 10 270 1.6 6.4 0.00 0.00 0.00 48 1008.5
20260506020515 10 224 1.6 8.0 0.00 0.00 0.00 48 1008.3
20260506020034 10 246 1.6 8.0 0.00 0.00 0.00 47 1008.2
20260506015515 10 240 1.6 6.4 0.00 0.00 0.00 47 1008.1
20260506015019 10 0 3.2 6.4 0.00 0.00 0.00 47 1008.0
20260506014533 10 272 1.6 9.7 0.00 0.00 0.00 47 1008.0
20260506014014 10 274 3.2 9.7 0.00 0.00 0.00 46 1007.9
20260506013515 10 243 0.0 6.4 0.00 0.00 0.00 47 1007.9
20260506013030 10 0 1.6 6.4 0.00 0.00 0.00 48 1007.9
20260506012514 10 263 1.6 9.7 0.00 0.00 0.00 46 1007.9
20260506012012 10 255 3.2 9.7 0.00 0.00 0.00 46 1007.9
20260506011532 10 226 1.6 6.4 0.00 0.00 0.00 46 1007.8
20260506011015 10 221 0.0 4.8 0.00 0.00 0.00 46 1007.9
20260506010515 10 236 1.6 9.7 0.00 0.00 0.00 45 1007.8
20260506010044 10 240 1.6 12.9 0.00 0.00 0.00 45 1007.8
20260506005515 11 255 4.8 12.9 0.00 0.00 0.00 45 1007.9
20260506005014 11 210 4.8 11.3 0.00 0.00 0.00 44 1007.8
20260506004530 11 0 1.6 8.0 0.00 0.00 0.00 45 1007.8
20260506004013 11 261 3.2 9.7 0.00 0.00 0.00 43 1007.8
20260506003513 11 263 1.6 11.3 0.00 0.00 0.00 43 1007.7
20260506003032 11 262 3.2 16.1 0.00 0.00 0.00 43 1007.6
20260506002512 11 247 3.2 16.1 0.00 0.00 0.00 42 1007.6
20260506002013 11 251 6.4 20.9 0.00 0.00 0.00 42 1007.6
20260506001531 11 253 8.0 20.9 0.00 0.00 0.00 42 1007.6
20260506001016 11 262 1.6 12.9 0.00 0.00 0.00 44 1007.5
20260506000515 11 264 3.2 12.9 0.00 0.00 0.00 43 1007.4
20260506000029 11 262 4.8 14.5 0.00 0.00 0.00 43 1007.4
20260505235515 11 259 4.8 14.5 0.00 0.00 0.00 43 1007.3
20260505235014 11 242 4.8 11.3 0.00 0.00 0.00 43 1007.2
20260505234554 11 0 1.6 11.3 0.00 0.00 0.00 44 1007.2
20260505234016 11 269 3.2 11.3 0.00 0.00 0.00 44 1007.2
20260505233514 11 271 3.2 11.3 0.00 0.00 0.00 45 1007.1
20260505233037 11 279 1.6 9.7 0.00 0.00 0.00 48 1007.1
20260505232513 11 246 3.2 9.7 0.00 0.00 0.00 48 1007.0
20260505232013 11 255 4.8 11.3 0.00 0.00 0.00 49 1007.0
20260505231533 11 271 1.6 11.3 0.00 0.00 0.00 52 1006.9
20260505231015 12 228 3.2 9.7 0.00 0.00 0.00 56 1007.0
20260505230515 12 229 4.8 9.7 0.00 0.00 0.00 57 1007.0
20260505230029 12 156 3.2 14.5 0.00 0.00 0.00 58 1007.1
20260505225516 12 213 3.2 14.5 0.00 0.00 0.00 56 1007.0
20260505225016 12 232 3.2 14.5 0.00 0.00 0.00 57 1007.1
20260505224533 12 227 4.8 9.7 0.00 0.00 0.00 55 1007.2
20260505224016 12 245 1.6 12.9 0.00 0.00 0.00 57 1007.1
20260505223523 12 265 3.2 12.9 0.00 0.00 0.00 53 1007.1
20260505223028 12 215 6.4 12.9 0.00 0.00 0.00 54 1007.1
20260505222518 12 0 1.6 12.9 0.00 0.00 0.00 54 1007.2
20260505222012 12 240 4.8 12.9 0.00 0.00 0.00 53 1007.2
20260505221530 12 204 6.4 12.9 0.00 0.00 0.00 54 1007.2
20260505221020 12 231 4.8 12.9 0.00 0.00 0.00 55 1007.2
20260505220515 12 202 4.8 19.3 0.00 0.00 0.00 54 1007.2
20260505220032 12 236 4.8 19.3 0.00 0.00 0.00 54 1007.3
20260505215515 12 253 6.4 14.5 0.00 0.00 0.00 54 1007.2
20260505215014 12 163 4.8 12.9 0.00 0.00 0.00 54 1007.4
20260505214557 12 224 4.8 12.9 0.00 0.00 0.00 53 1007.3
20260505214018 12 271 4.8 14.5 0.00 0.00 0.00 53 1007.2
20260505213514 12 299 3.2 17.7 0.00 0.00 0.00 53 1007.2
20260505213028 12 256 6.4 17.7 0.00 0.00 0.00 54 1007.1
20260505212518 12 240 3.2 16.1 0.00 0.00 0.00 56 1007.1
20260505212015 12 210 4.8 14.5 0.00 0.00 0.00 54 1007.1
20260505211532 12 247 3.2 20.9 0.00 0.00 0.00 56 1007.2
20260505211015 12 241 6.4 20.9 0.00 0.00 0.00 56 1007.3
20260505210514 12 219 6.4 19.3 0.00 0.00 0.00 59 1007.3
20260505210031 12 230 6.4 16.1 0.00 0.00 0.00 63 1007.3
20260505205512 12 223 6.4 14.5 0.00 0.00 0.00 63 1007.2
20260505205015 12 260 4.8 14.5 0.00 0.00 0.00 63 1007.1
20260505204531 12 224 3.2 17.7 0.00 0.00 0.00 63 1007.1
20260505204019 12 217 4.8 17.7 0.00 0.00 0.00 64 1007.0
20260505203516 12 199 3.2 17.7 0.00 0.00 0.00 64 1007.2
20260505203036 12 235 3.2 17.7 0.00 0.00 0.00 62 1007.1
20260505202515 12 233 4.8 17.7 0.00 0.00 0.00 62 1007.2
20260505202013 12 219 4.8 14.5 0.00 0.00 0.00 61 1007.1
20260505201536 12 207 3.2 14.5 0.00 0.00 0.00 61 1007.0
20260505201013 12 213 4.8 14.5 0.00 0.00 0.00 61 1007.0
20260505200516 12 157 4.8 12.9 0.00 0.00 0.00 60 1007.2
20260505200032 12 244 3.2 12.9 0.00 0.00 0.00 60 1007.1
20260505195514 12 276 4.8 16.1 0.00 0.00 0.00 61 1007.2
20260505195013 12 254 1.6 17.7 0.00 0.00 0.00 59 1007.2
20260505194538 12 240 4.8 22.5 0.00 0.00 0.00 58 1007.3
20260505194014 12 193 11.3 22.5 0.00 0.00 0.00 59 1007.4
20260505193515 12 224 6.4 20.9 0.00 0.00 0.00 60 1007.3
20260505193031 12 215 8.0 20.9 0.00 0.00 0.00 61 1007.4
20260505192514 12 220 3.2 14.5 0.00 0.00 0.00 62 1007.4
20260505192015 12 237 6.4 12.9 0.00 0.00 0.00 61 1007.5
20260505191531 12 246 0.0 12.9 0.00 0.00 0.00 61 1007.4
20260505191014 12 262 4.8 20.9 0.00 0.00 0.00 60 1007.4
20260505190515 12 267 4.8 20.9 0.00 0.00 0.00 61 1007.4
20260505190028 12 325 4.8 14.5 0.00 0.00 0.00 59 1007.4
20260505185515 12 217 3.2 14.5 0.00 0.00 0.00 60 1007.4
20260505185015 12 203 4.8 14.5 0.00 0.00 0.00 59 1007.4
20260505184531 12 323 3.2 14.5 0.00 0.00 0.00 59 1007.4
20260505184012 12 230 3.2 11.3 0.00 0.00 0.00 60 1007.3
20260505183517 12 260 1.6 19.3 0.00 0.00 0.00 60 1007.2
20260505183033 12 223 9.7 22.5 0.00 0.00 0.00 60 1007.1
20260505182519 12 269 8.0 22.5 0.00 0.00 0.00 60 1007.0
20260505182015 12 268 8.0 22.5 0.00 0.00 0.00 60 1007.0
20260505181532 12 221 6.4 29.0 0.00 0.00 0.00 63 1006.8
20260505181016 12 274 11.3 29.0 0.00 0.00 0.00 62 1006.8
20260505180515 12 232 4.8 14.5 0.00 0.00 0.00 64 1006.8
20260505180054 12 261 4.8 14.5 0.00 0.00 0.00 65 1006.8
20260505175517 11 236 4.8 14.5 0.00 0.00 0.00 68 1006.7
20260505175018 11 216 8.0 14.5 0.00 0.00 0.00 68 1006.7
20260505174550 11 221 4.8 19.3 0.00 0.00 0.00 69 1006.6
20260505174013 11 271 8.0 19.3 0.00 0.00 0.00 68 1006.6
20260505173513 11 233 8.0 19.3 0.00 0.00 0.00 68 1006.8
20260505173034 11 248 6.4 16.1 0.00 0.00 0.00 71 1006.8
20260505172514 11 229 6.4 19.3 0.00 0.00 0.00 70 1006.5
20260505172015 11 269 6.4 19.3 0.00 0.00 0.00 71 1006.6
20260505171532 11 219 8.0 19.3 0.00 0.00 0.00 71 1006.6
20260505171014 11 233 6.4 19.3 0.00 0.00 0.00 72 1006.5
20260505170513 11 229 6.4 20.9 0.00 0.00 0.00 72 1006.5
20260505170031 11 251 8.0 20.9 0.00 0.00 0.00 74 1006.6
20260505165518 11 245 4.8 11.3 0.00 0.00 0.00 75 1006.8
20260505165013 10 215 4.8 22.5 0.00 0.00 0.00 74 1006.8
20260505164530 10 198 8.0 22.5 0.00 0.00 0.00 76 1006.8
20260505164014 10 233 6.4 12.9 0.00 0.00 0.00 77 1006.8
20260505163512 10 223 1.6 6.4 0.00 0.00 0.00 79 1006.7
20260505163031 10 215 0.0 6.4 0.00 0.00 0.00 79 1006.6
20260505162515 10 216 1.6 6.4 0.00 0.00 0.00 78 1006.7
20260505162016 10 210 1.6 4.8 0.00 0.00 0.00 78 1006.8
20260505161529 10 163 0.0 3.2 0.00 0.00 0.00 78 1006.9
20260505161015 10 0 0.0 3.2 0.00 0.00 0.00 78 1006.8
20260505160514 10 250 0.0 3.2 0.00 0.00 0.00 78 1006.8
20260505153033 10 346 3.2 11.3 0.00 0.00 0.00 72 1007.0
20260505152516 10 294 3.2 9.7 0.00 0.00 0.00 72 1007.0
20260505152015 10 340 3.2 8.0 0.00 0.00 0.00 70 1006.8
20260505151534 10 300 3.2 6.4 0.00 0.00 0.00 71 1006.5
20260505151013 10 306 1.6 6.4 0.00 0.00 0.00 71 1006.4
20260505150517 10 300 1.6 4.8 0.00 0.00 0.00 71 1006.6